TimeEDT,TemperatureF,Dew PointF,Humidity,Sea Level PressureIn,VisibilityMPH,Wind Direction,Wind SpeedMPH,Gust SpeedMPH,PrecipitationIn,Events,Conditions,WindDirDegrees,DateUTC
12:52 AM,42.1,39.0,89,30.15,10.0,South,5.8,-,N/A,,Scattered Clouds,190,2013-05-14 04:52:00
1:52 AM,44.1,34.0,68,30.14,10.0,South,6.9,-,N/A,,Partly Cloudy,190,2013-05-14 05:52:00
2:52 AM,45.0,34.0,65,30.13,10.0,South,6.9,-,N/A,,Mostly Cloudy,190,2013-05-14 06:52:00
3:52 AM,46.0,34.0,63,30.11,10.0,South,8.1,-,N/A,,Mostly Cloudy,190,2013-05-14 07:52:00
4:52 AM,46.9,37.0,68,30.10,10.0,South,6.9,-,N/A,,Overcast,180,2013-05-14 08:52:00
5:52 AM,48.9,34.0,56,30.09,10.0,South,9.2,-,N/A,,Mostly Cloudy,190,2013-05-14 09:52:00
6:52 AM,50.0,34.0,54,30.09,10.0,South,9.2,-,N/A,,Mostly Cloudy,190,2013-05-14 10:52:00
7:52 AM,52.0,37.0,57,30.11,10.0,South,8.1,-,N/A,,Overcast,180,2013-05-14 11:52:00
8:52 AM,54.0,37.9,55,30.10,10.0,South,9.2,-,N/A,,Overcast,190,2013-05-14 12:52:00
9:52 AM,59.0,37.9,46,30.09,10.0,South,15.0,20.7,N/A,,Mostly Cloudy,180,2013-05-14 13:52:00
10:52 AM,63.0,39.0,41,30.05,10.0,South,17.3,24.2,N/A,,Mostly Cloudy,180,2013-05-14 14:52:00
11:52 AM,68.0,44.1,42,30.02,10.0,South,12.7,19.6,N/A,,Partly Cloudy,190,2013-05-14 15:52:00
12:52 PM,71.1,46.9,42,29.99,10.0,South,16.1,27.6,N/A,,Clear,190,2013-05-14 16:52:00
1:52 PM,73.9,50.0,43,29.94,10.0,South,18.4,26.5,N/A,,Clear,180,2013-05-14 17:52:00
2:52 PM,77.0,51.1,40,29.91,10.0,SW,15.0,24.2,N/A,,Partly Cloudy,220,2013-05-14 18:52:00
3:52 PM,78.1,53.1,42,29.88,10.0,SSW,17.3,27.6,N/A,,Clear,200,2013-05-14 19:52:00
4:52 PM,79.0,53.1,40,29.86,10.0,SSW,16.1,26.5,N/A,,Partly Cloudy,210,2013-05-14 20:52:00
5:52 PM,80.1,54.0,40,29.83,10.0,SW,15.0,27.6,N/A,,Clear,220,2013-05-14 21:52:00
6:52 PM,80.1,55.0,42,29.83,10.0,SW,9.2,-,N/A,,Clear,220,2013-05-14 22:52:00
7:52 PM,79.0,55.0,44,29.84,10.0,SW,10.4,20.7,N/A,,Clear,230,2013-05-14 23:52:00
8:52 PM,75.0,55.9,51,29.85,10.0,SW,8.1,-,N/A,,Clear,220,2013-05-15 00:52:00
9:52 PM,73.9,55.9,53,29.88,10.0,WSW,4.6,-,N/A,,Clear,240,2013-05-15 01:52:00
10:52 PM,70.0,57.0,63,29.87,10.0,SSW,8.1,-,N/A,,Clear,210,2013-05-15 02:52:00
11:52 PM,71.1,57.0,61,29.86,10.0,SW,9.2,-,N/A,,Clear,220,2013-05-15 03:52:00